KLM508 KMIA-KLAX

Flight info

Callsign KLM508
Flight time 4h 56m
Altitude 36000
Route GLADZ4 BAGGS DCT REMIS Y280 LEV DCT KCEEE DCT TKNIQ DCT MOLLR DCT JCT DCT ELP J50 SSO J4 WLVRN DCT ESTWD HLYWD1
Aircraft B772/H-ICAO/L

Departure

Time 2026-04-21 11:27
Airport Miami International Airport (KMIA)

Arrival

Time 2026-04-21 16:23
Airport Los Angeles International Airport (KLAX)
Time Latitude Longitude Altitude Speed Heading
2026-04-21 11:05 25.79125 -80.27413 21 ft 0 kts 90°
2026-04-21 11:15 25.79125 -80.27417 22 ft 2 kts 90°
2026-04-21 11:15 25.79125 -80.27435 22 ft 3 kts 90°
2026-04-21 11:15 25.79125 -80.27456 22 ft 3 kts 90°
2026-04-21 11:15 25.79126 -80.27478 22 ft 3 kts 103°
2026-04-21 11:16 25.79134 -80.27499 22 ft 3 kts 128°
2026-04-21 11:16 25.79150 -80.27514 22 ft 3 kts 152°
2026-04-21 11:16 25.79169 -80.27521 22 ft 3 kts 173°
2026-04-21 11:16 25.79178 -80.27521 22 ft 0 kts 179°
2026-04-21 11:19 25.79174 -80.27522 22 ft 3 kts 181°
2026-04-21 11:19 25.79118 -80.27529 22 ft 12 kts 187°
2026-04-21 11:20 25.79012 -80.27544 22 ft 19 kts 187°
2026-04-21 11:20 25.78914 -80.27586 22 ft 13 kts 249°
2026-04-21 11:20 25.78907 -80.27680 22 ft 12 kts 269°
2026-04-21 11:20 25.78904 -80.27782 22 ft 13 kts 267°
2026-04-21 11:21 25.78919 -80.27878 22 ft 15 kts 301°
2026-04-21 11:21 25.78982 -80.27996 22 ft 20 kts 301°
2026-04-21 11:21 25.79062 -80.28139 22 ft 23 kts 302°
2026-04-21 11:21 25.79139 -80.28275 22 ft 18 kts 302°
2026-04-21 11:22 25.79196 -80.28377 22 ft 13 kts 302°
2026-04-21 11:22 25.79235 -80.28446 22 ft 9 kts 302°
2026-04-21 11:22 25.79272 -80.28516 22 ft 12 kts 301°
2026-04-21 11:22 25.79321 -80.28607 22 ft 15 kts 301°
2026-04-21 11:23 25.79378 -80.28718 22 ft 18 kts 299°
2026-04-21 11:23 25.79446 -80.28851 22 ft 21 kts 300°
2026-04-21 11:23 25.79524 -80.29003 22 ft 24 kts 300°
2026-04-21 11:23 25.79610 -80.29172 22 ft 26 kts 300°
2026-04-21 11:24 25.79704 -80.29356 22 ft 28 kts 300°
2026-04-21 11:24 25.79804 -80.29548 22 ft 28 kts 300°
2026-04-21 11:24 25.79890 -80.29715 22 ft 22 kts 300°
2026-04-21 11:24 25.79956 -80.29845 22 ft 17 kts 293°
2026-04-21 11:25 25.79984 -80.29954 22 ft 13 kts 282°
2026-04-21 11:25 25.79999 -80.30033 22 ft 8 kts 282°
2026-04-21 11:25 25.80008 -80.30077 22 ft 4 kts 282°
2026-04-21 11:25 25.80027 -80.30116 22 ft 9 kts 326°
2026-04-21 11:26 25.80062 -80.30114 22 ft 6 kts 35°
2026-04-21 11:26 25.80073 -80.30085 22 ft 2 kts 87°
2026-04-21 11:26 25.80073 -80.30082 22 ft 1 kts 87°
2026-04-21 11:26 25.80080 -80.29939 22 ft 50 kts 87°
2026-04-21 11:27 25.80109 -80.29250 22 ft 127 kts 87°
2026-04-21 11:27 25.80164 -80.28015 75 ft 191 kts 87°
2026-04-21 11:27 25.80231 -80.26483 973 ft 197 kts 86°
2026-04-21 11:27 25.80290 -80.25073 2364 ft 178 kts 83°
2026-04-21 11:28 25.80347 -80.23682 3281 ft 184 kts 83°
2026-04-21 11:28 25.80405 -80.22212 3954 ft 196 kts 84°
2026-04-21 11:28 25.80467 -80.20666 4689 ft 205 kts 84°
2026-04-21 11:28 25.80531 -80.19056 5387 ft 216 kts 85°
2026-04-21 11:29 25.80747 -80.17373 6083 ft 222 kts 69°
2026-04-21 11:29 25.81617 -80.15977 6830 ft 224 kts 38°
2026-04-21 11:29 25.83053 -80.15298 7567 ft 229 kts
2026-04-21 11:29 25.84656 -80.15471 8140 ft 240 kts 344°
2026-04-21 11:30 25.86280 -80.16021 8849 ft 245 kts 347°
2026-04-21 11:30 25.87996 -80.16423 9454 ft 259 kts 349°
2026-04-21 11:30 25.89841 -80.16809 9915 ft 280 kts 349°
2026-04-21 11:30 25.91812 -80.17255 10438 ft 299 kts 348°
2026-04-21 11:31 25.93931 -80.17781 10869 ft 321 kts 346°
2026-04-21 11:31 25.96064 -80.18620 11352 ft 339 kts 332°
2026-04-21 11:31 25.97954 -80.20277 11869 ft 356 kts 311°
2026-04-21 11:31 25.99289 -80.22629 12567 ft 366 kts 296°
2026-04-21 11:32 26.00208 -80.25304 13335 ft 374 kts 285°
2026-04-21 11:32 26.00484 -80.28196 14146 ft 381 kts 268°
2026-04-21 11:32 26.00031 -80.31104 15055 ft 386 kts 257°
2026-04-21 11:32 25.99181 -80.33966 15816 ft 393 kts 250°
2026-04-21 11:33 25.97975 -80.36721 16635 ft 399 kts 243°
2026-04-21 11:33 25.96608 -80.39422 17444 ft 403 kts 242°
2026-04-21 11:33 25.95188 -80.42123 18218 ft 407 kts 241°
2026-04-21 11:33 25.93728 -80.44846 18983 ft 411 kts 241°
2026-04-21 11:34 25.92249 -80.47587 19740 ft 415 kts 241°
2026-04-21 11:34 25.90773 -80.50311 20480 ft 418 kts 241°
2026-04-21 11:34 25.89264 -80.53091 21204 ft 421 kts 241°
2026-04-21 11:34 25.87743 -80.55892 21896 ft 425 kts 241°
2026-04-21 11:35 25.86214 -80.58705 22561 ft 428 kts 242°
2026-04-21 11:35 25.84668 -80.61548 23198 ft 431 kts 242°
2026-04-21 11:35 25.83619 -80.63477 23601 ft 434 kts 242°
2026-04-21 11:35 25.82075 -80.66315 24202 ft 436 kts 242°
2026-04-21 11:36 25.80505 -80.69217 24785 ft 438 kts 243°
2026-04-21 11:36 25.79101 -80.72230 25281 ft 441 kts 248°
2026-04-21 11:36 25.77908 -80.75372 25807 ft 444 kts 251°
2026-04-21 11:36 25.76849 -80.78597 26339 ft 446 kts 254°
2026-04-21 11:37 25.75899 -80.81889 26870 ft 449 kts 256°
2026-04-21 11:37 25.75020 -80.85232 27377 ft 453 kts 257°
2026-04-21 11:37 25.74156 -80.88610 27890 ft 456 kts 256°
2026-04-21 11:37 25.73283 -80.91975 28625 ft 454 kts 256°
2026-04-21 11:38 25.72393 -80.95352 29091 ft 459 kts 256°
2026-04-21 11:38 25.71469 -80.98758 29552 ft 463 kts 255°
2026-04-21 11:38 25.70529 -81.02186 30027 ft 466 kts 255°
2026-04-21 11:38 25.69587 -81.05608 30646 ft 465 kts 255°
2026-04-21 11:39 25.68645 -81.09027 31359 ft 461 kts 255°
2026-04-21 11:39 25.67711 -81.12412 32143 ft 456 kts 256°
2026-04-21 11:39 25.66789 -81.15756 32916 ft 451 kts 256°
2026-04-21 11:39 25.65981 -81.19090 33503 ft 446 kts 263°
2026-04-21 11:40 25.65832 -81.22499 34020 ft 441 kts 276°
2026-04-21 11:40 25.66427 -81.25817 34578 ft 439 kts 287°
2026-04-21 11:40 25.67577 -81.28933 35188 ft 435 kts 294°
2026-04-21 11:40 25.68860 -81.31900 35756 ft 431 kts 294°
2026-04-21 11:41 25.70169 -81.34889 36149 ft 432 kts 294°
2026-04-21 11:41 25.71487 -81.37887 36235 ft 430 kts 294°
2026-04-21 11:41 25.74089 -81.43835 36235 ft 427 kts 294°
2026-04-21 11:42 25.76692 -81.49762 36234 ft 427 kts 294°
2026-04-21 11:42 25.79291 -81.55719 36235 ft 428 kts 294°
2026-04-21 11:43 25.81857 -81.61640 36232 ft 428 kts 294°
2026-04-21 11:43 25.84439 -81.67605 36231 ft 429 kts 294°
2026-04-21 11:44 25.87023 -81.73579 36231 ft 429 kts 294°
2026-04-21 11:44 25.90148 -81.79223 36224 ft 432 kts 309°
2026-04-21 11:45 25.94733 -81.83674 36230 ft 444 kts 320°
2026-04-21 11:45 25.99743 -81.87592 36235 ft 440 kts 320°
2026-04-21 11:46 26.04688 -81.91574 36235 ft 438 kts 319°
2026-04-21 11:46 26.09573 -81.95643 36234 ft 438 kts 318°
2026-04-21 11:47 26.14432 -81.99732 36233 ft 438 kts 318°
2026-04-21 11:47 26.19307 -82.03827 36235 ft 438 kts 318°
2026-04-21 11:48 26.24147 -82.07897 36253 ft 438 kts 318°
2026-04-21 11:48 26.29009 -82.12000 36253 ft 438 kts 318°
2026-04-21 11:49 26.33853 -82.16098 36250 ft 436 kts 318°
2026-04-21 11:49 26.38687 -82.20192 36255 ft 436 kts 318°
2026-04-21 11:50 26.43525 -82.24295 36258 ft 436 kts 318°
2026-04-21 11:50 26.48347 -82.28389 36261 ft 436 kts 318°
2026-04-21 11:51 26.53152 -82.32474 36262 ft 437 kts 318°
2026-04-21 11:51 26.58000 -82.36599 36267 ft 437 kts 318°
2026-04-21 11:52 26.62840 -82.40722 36266 ft 437 kts 318°
2026-04-21 11:52 26.67672 -82.44842 36267 ft 437 kts 318°
2026-04-21 11:53 26.72482 -82.48949 36267 ft 437 kts 318°
2026-04-21 11:53 26.77316 -82.53081 36264 ft 437 kts 318°
2026-04-21 11:54 26.82161 -82.57226 36264 ft 438 kts 318°
2026-04-21 11:54 26.87011 -82.61380 36263 ft 439 kts 318°
2026-04-21 11:55 26.91870 -82.65528 36264 ft 439 kts 318°
2026-04-21 11:55 26.96714 -82.69686 36263 ft 439 kts 318°
2026-04-21 11:56 27.01552 -82.73852 36263 ft 439 kts 318°
2026-04-21 11:56 27.06399 -82.78029 36266 ft 440 kts 318°
2026-04-21 11:57 27.11244 -82.82248 36272 ft 439 kts 315°
2026-04-21 11:57 27.13349 -82.84710 36272 ft 435 kts 303°
2026-04-21 11:57 27.14896 -82.87616 36274 ft 435 kts 293°
2026-04-21 11:58 27.16972 -82.93950 36267 ft 436 kts 287°
2026-04-21 11:58 27.18807 -83.00440 36277 ft 435 kts 288°
2026-04-21 11:59 27.20741 -83.06868 36281 ft 434 kts 288°
2026-04-21 11:59 27.22736 -83.13280 36276 ft 436 kts 290°
2026-04-21 12:00 27.24775 -83.19755 36273 ft 441 kts 289°
2026-04-21 12:00 27.26839 -83.26202 36290 ft 435 kts 289°
2026-04-21 12:01 27.28879 -83.32588 36290 ft 434 kts 289°
2026-04-21 12:01 27.30903 -83.38965 36288 ft 437 kts 288°
2026-04-21 12:02 27.33963 -83.48650 36291 ft 437 kts 288°
2026-04-21 12:03 27.35991 -83.55088 36291 ft 436 kts 288°
2026-04-21 12:03 27.38016 -83.61529 36288 ft 436 kts 288°
2026-04-21 12:04 27.40023 -83.67926 36288 ft 436 kts 288°
2026-04-21 12:04 27.42044 -83.74376 36299 ft 436 kts 288°
2026-04-21 12:05 27.44060 -83.80825 36306 ft 437 kts 288°
2026-04-21 12:05 27.46076 -83.87286 36304 ft 438 kts 288°
2026-04-21 12:06 27.48079 -83.93716 36307 ft 437 kts 288°
2026-04-21 12:06 27.50095 -84.00198 36308 ft 437 kts 288°
2026-04-21 12:07 27.52105 -84.06677 36306 ft 437 kts 288°
2026-04-21 12:07 27.54111 -84.13151 36306 ft 438 kts 288°
2026-04-21 12:08 27.56117 -84.19639 36308 ft 438 kts 288°
2026-04-21 12:08 27.58118 -84.26122 36308 ft 437 kts 288°
2026-04-21 12:09 27.60112 -84.32596 36307 ft 437 kts 288°
2026-04-21 12:09 27.62092 -84.39035 36308 ft 437 kts 288°
2026-04-21 12:10 27.64076 -84.45501 36308 ft 436 kts 288°
2026-04-21 12:10 27.66060 -84.51978 36309 ft 437 kts 288°
2026-04-21 12:11 27.68041 -84.58458 36308 ft 436 kts 288°
2026-04-21 12:11 27.70018 -84.64936 36308 ft 437 kts 288°
2026-04-21 12:12 27.71991 -84.71413 36309 ft 436 kts 288°
2026-04-21 12:12 27.73963 -84.77900 36308 ft 436 kts 288°
2026-04-21 12:13 27.75930 -84.84384 36308 ft 438 kts 288°
2026-04-21 12:13 27.77907 -84.90911 36302 ft 440 kts 288°
2026-04-21 12:14 27.79912 -84.97462 36299 ft 441 kts 288°
2026-04-21 12:14 27.81872 -85.03966 36301 ft 439 kts 288°
2026-04-21 12:15 27.83835 -85.10514 36297 ft 440 kts 288°
2026-04-21 12:15 27.85796 -85.17067 36297 ft 440 kts 288°
2026-04-21 12:16 27.87756 -85.23614 36298 ft 440 kts 288°
2026-04-21 12:16 27.89730 -85.30160 36298 ft 439 kts 288°
2026-04-21 12:17 27.91709 -85.36705 36292 ft 439 kts 288°
2026-04-21 12:17 27.93680 -85.43249 36291 ft 439 kts 288°
2026-04-21 12:18 27.95632 -85.49746 36289 ft 439 kts 288°
2026-04-21 12:18 27.97592 -85.56283 36289 ft 439 kts 288°
2026-04-21 12:19 27.99555 -85.62839 36289 ft 439 kts 288°
2026-04-21 12:19 28.01546 -85.69375 36289 ft 439 kts 288°
2026-04-21 12:20 28.03524 -85.75928 36289 ft 439 kts 288°
2026-04-21 12:20 28.05481 -85.82456 36290 ft 442 kts 288°
2026-04-21 12:21 28.07451 -85.89053 36289 ft 441 kts 288°
2026-04-21 12:21 28.09412 -85.95630 36289 ft 440 kts 288°
2026-04-21 12:22 28.11037 -86.01094 36290 ft 441 kts 288°
2026-04-21 12:22 28.12993 -86.07683 36289 ft 440 kts 288°
2026-04-21 12:23 28.14943 -86.14266 36289 ft 440 kts 288°
2026-04-21 12:23 28.16890 -86.20849 36289 ft 440 kts 288°
2026-04-21 12:24 28.18830 -86.27424 36289 ft 440 kts 288°
2026-04-21 12:24 28.20771 -86.34015 36289 ft 441 kts 288°
2026-04-21 12:25 28.22721 -86.40572 36290 ft 441 kts 288°
2026-04-21 12:25 28.24660 -86.47176 36289 ft 441 kts 288°
2026-04-21 12:26 28.26589 -86.53792 36289 ft 441 kts 288°
2026-04-21 12:26 28.28511 -86.60402 36289 ft 441 kts 288°
2026-04-21 12:27 28.30433 -86.67012 36289 ft 441 kts 288°
2026-04-21 12:27 28.32363 -86.73628 36290 ft 441 kts 288°
2026-04-21 12:28 28.34285 -86.80205 36290 ft 442 kts 288°
2026-04-21 12:28 28.36223 -86.86861 36290 ft 444 kts 288°
2026-04-21 12:29 28.38156 -86.93525 36289 ft 443 kts 288°
2026-04-21 12:29 28.40067 -87.00121 36289 ft 442 kts 288°
2026-04-21 12:30 28.42000 -87.06792 36285 ft 445 kts 289°
2026-04-21 12:30 28.43954 -87.13455 36289 ft 443 kts 288°
2026-04-21 12:31 28.45891 -87.20094 36289 ft 443 kts 288°
2026-04-21 12:31 28.47817 -87.26743 36289 ft 442 kts 288°
2026-04-21 12:32 28.49733 -87.33383 36289 ft 441 kts 288°
2026-04-21 12:32 28.51640 -87.40010 36290 ft 440 kts 288°
2026-04-21 12:33 28.53528 -87.46586 36290 ft 441 kts 288°
2026-04-21 12:33 28.55436 -87.53243 36289 ft 443 kts 288°
2026-04-21 12:34 28.57336 -87.59890 36289 ft 441 kts 288°
2026-04-21 12:34 28.59225 -87.66509 36318 ft 439 kts 288°
2026-04-21 12:35 28.61109 -87.73123 36319 ft 439 kts 288°
2026-04-21 12:35 28.63002 -87.79696 36319 ft 439 kts 288°
2026-04-21 12:36 28.64878 -87.86320 36318 ft 440 kts 287°
2026-04-21 12:36 28.66749 -87.92961 36319 ft 440 kts 287°
2026-04-21 12:37 28.68614 -87.99597 36319 ft 440 kts 287°
2026-04-21 12:37 28.70480 -88.06232 36319 ft 440 kts 287°
2026-04-21 12:38 28.72356 -88.12872 36333 ft 440 kts 287°
2026-04-21 12:38 28.74208 -88.19525 36328 ft 440 kts 287°
2026-04-21 12:39 28.76058 -88.26166 36328 ft 439 kts 287°
2026-04-21 12:39 28.77894 -88.32764 36326 ft 439 kts 287°
2026-04-21 12:40 28.79772 -88.39389 36322 ft 439 kts 287°
2026-04-21 12:40 28.81635 -88.46029 36320 ft 439 kts 287°
2026-04-21 12:41 28.83475 -88.52682 36319 ft 439 kts 287°
2026-04-21 12:41 28.85310 -88.59335 36319 ft 439 kts 287°
2026-04-21 12:42 28.87132 -88.65947 36319 ft 439 kts 287°
2026-04-21 12:42 28.88923 -88.72620 36319 ft 439 kts 285°
2026-04-21 12:43 28.90386 -88.79401 36318 ft 439 kts 282°
2026-04-21 12:43 28.91743 -88.86174 36319 ft 441 kts 282°
2026-04-21 12:44 28.93152 -88.92992 36319 ft 441 kts 283°
2026-04-21 12:44 28.94575 -88.99807 36319 ft 440 kts 283°
2026-04-21 12:45 28.96004 -89.06629 36318 ft 444 kts 283°
2026-04-21 12:45 28.97470 -89.13485 36318 ft 444 kts 283°
2026-04-21 12:46 28.98923 -89.20306 36318 ft 441 kts 283°
2026-04-21 12:46 29.00346 -89.27063 36319 ft 440 kts 283°
2026-04-21 12:47 29.01774 -89.33876 36319 ft 442 kts 282°
2026-04-21 12:47 29.03202 -89.40719 36319 ft 442 kts 282°
2026-04-21 12:48 29.04629 -89.47574 36319 ft 442 kts 282°
2026-04-21 12:48 29.06047 -89.54409 36319 ft 442 kts 282°
2026-04-21 12:49 29.07454 -89.61205 36319 ft 442 kts 282°
2026-04-21 12:49 29.08867 -89.68053 36319 ft 442 kts 282°
2026-04-21 12:50 29.10278 -89.74897 36319 ft 442 kts 282°
2026-04-21 12:50 29.11699 -89.81698 36318 ft 442 kts 282°
2026-04-21 12:51 29.13096 -89.88541 36319 ft 442 kts 282°
2026-04-21 12:51 29.14484 -89.95383 36318 ft 442 kts 282°
2026-04-21 12:52 29.15870 -90.02232 36319 ft 442 kts 282°
2026-04-21 12:52 29.17242 -90.09086 36319 ft 441 kts 280°
2026-04-21 12:53 29.17973 -90.16052 36320 ft 442 kts 273°
2026-04-21 12:53 29.18174 -90.23077 36318 ft 442 kts 271°
2026-04-21 12:54 29.18297 -90.30104 36319 ft 441 kts 272°
2026-04-21 12:54 29.18488 -90.37090 36318 ft 442 kts 272°
2026-04-21 12:55 29.18705 -90.44113 36319 ft 440 kts 272°
2026-04-21 12:55 29.18935 -90.51117 36319 ft 440 kts 273°
2026-04-21 12:56 29.19204 -90.58128 36320 ft 440 kts 273°
2026-04-21 12:56 29.19451 -90.65086 36320 ft 440 kts 272°
2026-04-21 12:57 29.19688 -90.72084 36324 ft 440 kts 272°
2026-04-21 12:57 29.19918 -90.79087 36328 ft 440 kts 272°
2026-04-21 12:58 29.20144 -90.86089 36326 ft 441 kts 272°
2026-04-21 12:58 29.20366 -90.93114 36327 ft 440 kts 272°
2026-04-21 12:59 29.20584 -91.00125 36340 ft 440 kts 272°
2026-04-21 12:59 29.20796 -91.07076 36337 ft 440 kts 272°
2026-04-21 13:00 29.21007 -91.14104 36335 ft 443 kts 273°
2026-04-21 13:00 29.21215 -91.21162 36346 ft 442 kts 272°
2026-04-21 13:01 29.21418 -91.28171 36348 ft 440 kts 272°
2026-04-21 13:01 29.21618 -91.35180 36343 ft 440 kts 272°
2026-04-21 13:02 29.21813 -91.42185 36345 ft 440 kts 272°
2026-04-21 13:02 29.22100 -91.52695 36349 ft 441 kts 272°
2026-04-21 13:03 29.22285 -91.59669 36345 ft 441 kts 272°
2026-04-21 13:03 29.22468 -91.66681 36346 ft 440 kts 272°
2026-04-21 13:04 29.22648 -91.73692 36346 ft 440 kts 272°
2026-04-21 13:04 29.22824 -91.80718 36348 ft 441 kts 272°
2026-04-21 13:05 29.22996 -91.87737 36347 ft 441 kts 272°
2026-04-21 13:05 29.23164 -91.94707 36343 ft 441 kts 272°
2026-04-21 13:06 29.23328 -92.01725 36344 ft 441 kts 272°
2026-04-21 13:06 29.23490 -92.08743 36345 ft 441 kts 272°
2026-04-21 13:07 29.23672 -92.15763 36343 ft 441 kts 272°
2026-04-21 13:07 29.23826 -92.22789 36343 ft 441 kts 272°
2026-04-21 13:08 29.23968 -92.29807 36345 ft 441 kts 272°
2026-04-21 13:08 29.24106 -92.36843 36342 ft 443 kts 271°
2026-04-21 13:09 29.24245 -92.43926 36342 ft 445 kts 271°
2026-04-21 13:09 29.24342 -92.50975 36344 ft 445 kts 271°
2026-04-21 13:10 29.24358 -92.58060 36343 ft 444 kts 270°
2026-04-21 13:10 29.24372 -92.65133 36338 ft 444 kts 270°
2026-04-21 13:11 29.24383 -92.71016 36339 ft 444 kts 270°
2026-04-21 13:11 29.24394 -92.78092 36339 ft 444 kts 270°
2026-04-21 13:12 29.24403 -92.85171 36327 ft 445 kts 270°
2026-04-21 13:12 29.24445 -92.92257 36325 ft 444 kts 271°
2026-04-21 13:13 29.24478 -92.99336 36330 ft 444 kts 270°
2026-04-21 13:13 29.24494 -93.06364 36320 ft 444 kts 270°
2026-04-21 13:14 29.24503 -93.13474 36313 ft 444 kts 270°
2026-04-21 13:14 29.24506 -93.20503 36311 ft 444 kts 270°
2026-04-21 13:15 29.24506 -93.27613 36305 ft 448 kts 270°
2026-04-21 13:15 29.24501 -93.34739 36275 ft 446 kts 270°
2026-04-21 13:16 29.24492 -93.41828 36275 ft 445 kts 270°
2026-04-21 13:16 29.24480 -93.48912 36274 ft 444 kts 270°
2026-04-21 13:17 29.24464 -93.55962 36247 ft 446 kts 270°
2026-04-21 13:17 29.24444 -93.63062 36242 ft 445 kts 270°
2026-04-21 13:18 29.24420 -93.70134 36237 ft 444 kts 270°
2026-04-21 13:18 29.24393 -93.77207 36216 ft 443 kts 270°
2026-04-21 13:19 29.24378 -93.80689 36208 ft 432 kts 270°
2026-04-21 13:19 29.24363 -93.84077 36206 ft 428 kts 270°
2026-04-21 13:19 29.24330 -93.90882 36222 ft 428 kts 270°
2026-04-21 13:20 29.24293 -93.97692 36220 ft 428 kts 270°
2026-04-21 13:20 29.24253 -94.04519 36187 ft 428 kts 270°
2026-04-21 13:21 29.24218 -94.11306 36190 ft 429 kts 270°
2026-04-21 13:21 29.24190 -94.18137 36202 ft 428 kts 270°
2026-04-21 13:22 29.24135 -94.24932 36237 ft 426 kts 270°
2026-04-21 13:22 29.24072 -94.31732 36247 ft 426 kts 270°
2026-04-21 13:23 29.24007 -94.38524 36255 ft 426 kts 270°
2026-04-21 13:23 29.24118 -94.45257 36258 ft 426 kts 278°
2026-04-21 13:24 29.24848 -94.48547 36259 ft 428 kts 290°
2026-04-21 13:24 29.26139 -94.51635 36261 ft 431 kts 296°
2026-04-21 13:24 29.29332 -94.57524 36253 ft 438 kts 300°
2026-04-21 13:25 29.32573 -94.63444 36257 ft 439 kts 298°
2026-04-21 13:25 29.35703 -94.69437 36257 ft 437 kts 297°
2026-04-21 13:26 29.38796 -94.75442 36250 ft 438 kts 297°
2026-04-21 13:26 29.41889 -94.81454 36249 ft 437 kts 297°
2026-04-21 13:27 29.44974 -94.87397 36253 ft 436 kts 297°
2026-04-21 13:27 29.48077 -94.93426 36250 ft 436 kts 297°
2026-04-21 13:28 29.51153 -94.99383 36236 ft 437 kts 297°
2026-04-21 13:28 29.54237 -95.05398 36234 ft 436 kts 297°
2026-04-21 13:29 29.57301 -95.11412 36236 ft 436 kts 297°
2026-04-21 13:29 29.60366 -95.17438 36248 ft 436 kts 297°
2026-04-21 13:30 29.63441 -95.23488 36251 ft 438 kts 297°
2026-04-21 13:30 29.65953 -95.29789 36252 ft 432 kts 286°
2026-04-21 13:31 29.67604 -95.36383 36249 ft 430 kts 283°
2026-04-21 13:31 29.69064 -95.43050 36255 ft 430 kts 282°
2026-04-21 13:32 29.70533 -95.49726 36257 ft 430 kts 282°
2026-04-21 13:32 29.72006 -95.56386 36267 ft 430 kts 282°
2026-04-21 13:33 29.73485 -95.63070 36267 ft 430 kts 282°
2026-04-21 13:33 29.74983 -95.69733 36264 ft 431 kts 283°
2026-04-21 13:34 29.76506 -95.76450 36260 ft 437 kts 282°
2026-04-21 13:34 29.78019 -95.83202 36259 ft 437 kts 282°
2026-04-21 13:35 29.79515 -95.89928 36254 ft 431 kts 282°
2026-04-21 13:35 29.80993 -95.96604 36257 ft 430 kts 282°
2026-04-21 13:36 29.82470 -96.03291 36254 ft 430 kts 282°
2026-04-21 13:36 29.83941 -96.09977 36253 ft 431 kts 282°
2026-04-21 13:37 29.85413 -96.16680 36246 ft 431 kts 282°
2026-04-21 13:37 29.86871 -96.23342 36240 ft 431 kts 282°
2026-04-21 13:38 29.88338 -96.30061 36239 ft 432 kts 282°
2026-04-21 13:38 29.89797 -96.36761 36246 ft 431 kts 282°
2026-04-21 13:39 29.91251 -96.43451 36245 ft 430 kts 282°
2026-04-21 13:39 29.92703 -96.50153 36244 ft 431 kts 282°
2026-04-21 13:40 29.94152 -96.56860 36243 ft 430 kts 282°
2026-04-21 13:40 29.95586 -96.63514 36249 ft 430 kts 282°
2026-04-21 13:41 29.97024 -96.70206 36245 ft 430 kts 281°
2026-04-21 13:41 29.98463 -96.76918 36247 ft 430 kts 281°
2026-04-21 13:42 29.99898 -96.83630 36241 ft 432 kts 282°
2026-04-21 13:42 30.01329 -96.90338 36236 ft 433 kts 282°
2026-04-21 13:43 30.02762 -96.97075 36235 ft 432 kts 282°
2026-04-21 13:43 30.04194 -97.03828 36233 ft 433 kts 282°
2026-04-21 13:44 30.05623 -97.10582 36230 ft 433 kts 281°
2026-04-21 13:44 30.07038 -97.17292 36230 ft 433 kts 282°
2026-04-21 13:45 30.08468 -97.24087 36236 ft 437 kts 282°
2026-04-21 13:45 30.09895 -97.30891 36231 ft 433 kts 282°
2026-04-21 13:46 30.11303 -97.37621 36230 ft 431 kts 282°
2026-04-21 13:46 30.12710 -97.44364 36230 ft 432 kts 282°
2026-04-21 13:47 30.14114 -97.51106 36230 ft 431 kts 282°
2026-04-21 13:47 30.15511 -97.57841 36231 ft 431 kts 281°
2026-04-21 13:48 30.16905 -97.64575 36230 ft 431 kts 281°
2026-04-21 13:48 30.18287 -97.71272 36231 ft 431 kts 281°
2026-04-21 13:49 30.19684 -97.78060 36230 ft 431 kts 282°
2026-04-21 13:49 30.21065 -97.84786 36231 ft 433 kts 282°
2026-04-21 13:50 30.22455 -97.91579 36232 ft 435 kts 282°
2026-04-21 13:50 30.23843 -97.98381 36235 ft 433 kts 282°
2026-04-21 13:51 30.25224 -98.05163 36241 ft 434 kts 282°
2026-04-21 13:51 30.26600 -98.11944 36237 ft 432 kts 281°
2026-04-21 13:52 30.27968 -98.18702 36237 ft 431 kts 281°
2026-04-21 13:52 30.29331 -98.25456 36246 ft 431 kts 281°
2026-04-21 13:53 30.30682 -98.32172 36246 ft 431 kts 281°
2026-04-21 13:53 30.32041 -98.38941 36240 ft 431 kts 281°
2026-04-21 13:54 30.33396 -98.45713 36243 ft 431 kts 281°
2026-04-21 13:54 30.34751 -98.52503 36246 ft 433 kts 281°
2026-04-21 13:55 30.36092 -98.59242 36240 ft 432 kts 281°
2026-04-21 13:55 30.37436 -98.66016 36238 ft 431 kts 281°
2026-04-21 13:56 30.38778 -98.72799 36239 ft 432 kts 281°
2026-04-21 13:56 30.40116 -98.79584 36239 ft 432 kts 281°
2026-04-21 13:57 30.41449 -98.86358 36237 ft 430 kts 281°
2026-04-21 13:57 30.42779 -98.93139 36237 ft 432 kts 281°
2026-04-21 13:58 30.44096 -98.99875 36237 ft 431 kts 281°
2026-04-21 13:58 30.45418 -99.06655 36236 ft 432 kts 281°
2026-04-21 13:59 30.46736 -99.13433 36235 ft 430 kts 281°
2026-04-21 13:59 30.48050 -99.20214 36230 ft 431 kts 281°
2026-04-21 14:00 30.49154 -99.25920 36237 ft 440 kts 282°
2026-04-21 14:00 30.50483 -99.32813 36236 ft 433 kts 281°
2026-04-21 14:01 30.51784 -99.39585 36232 ft 429 kts 281°
2026-04-21 14:01 30.53079 -99.46314 36232 ft 430 kts 282°
2026-04-21 14:02 30.54396 -99.53083 36231 ft 430 kts 281°
2026-04-21 14:03 30.56323 -99.63257 36230 ft 430 kts 281°
2026-04-21 14:03 30.57605 -99.70066 36451 ft 435 kts 281°
2026-04-21 14:03 30.58248 -99.73486 36979 ft 431 kts 281°
2026-04-21 14:04 30.58887 -99.76881 37431 ft 430 kts 281°
2026-04-21 14:04 30.59524 -99.80265 37839 ft 430 kts 281°
2026-04-21 14:04 30.60135 -99.83683 38040 ft 433 kts 279°
2026-04-21 14:04 30.60628 -99.87140 38209 ft 434 kts 278°
2026-04-21 14:05 30.61043 -99.90601 38233 ft 432 kts 277°
2026-04-21 14:05 30.61807 -99.97513 38227 ft 430 kts 277°
2026-04-21 14:06 30.62596 -100.04344 38228 ft 430 kts 277°
2026-04-21 14:06 30.63410 -100.11226 38224 ft 430 kts 277°
2026-04-21 14:07 30.64228 -100.18097 38223 ft 430 kts 277°
2026-04-21 14:07 30.65071 -100.24972 38224 ft 430 kts 278°
2026-04-21 14:08 30.65927 -100.31842 38224 ft 430 kts 278°
2026-04-21 14:08 30.66767 -100.38726 38220 ft 430 kts 278°
2026-04-21 14:09 30.67591 -100.45562 38222 ft 429 kts 277°
2026-04-21 14:09 30.68412 -100.52429 38222 ft 429 kts 277°
2026-04-21 14:10 30.69230 -100.59307 38221 ft 429 kts 277°
2026-04-21 14:10 30.70043 -100.66186 38222 ft 429 kts 277°
2026-04-21 14:11 30.70852 -100.73056 38223 ft 429 kts 277°
2026-04-21 14:11 30.71653 -100.79898 38225 ft 429 kts 277°
2026-04-21 14:12 30.72454 -100.86770 38226 ft 428 kts 277°
2026-04-21 14:12 30.73248 -100.93614 38226 ft 428 kts 277°
2026-04-21 14:13 30.74041 -101.00475 38226 ft 428 kts 277°
2026-04-21 14:13 30.74830 -101.07337 38229 ft 428 kts 277°
2026-04-21 14:14 30.75614 -101.14197 38229 ft 428 kts 277°
2026-04-21 14:14 30.76390 -101.21008 38229 ft 427 kts 277°
2026-04-21 14:15 30.77168 -101.27875 38208 ft 431 kts 278°
2026-04-21 14:15 30.77953 -101.34838 38229 ft 434 kts 277°
2026-04-21 14:16 30.78730 -101.41764 38227 ft 429 kts 277°
2026-04-21 14:16 30.79493 -101.48596 38227 ft 428 kts 277°
2026-04-21 14:17 30.80263 -101.55522 38222 ft 429 kts 277°
2026-04-21 14:17 30.81024 -101.62405 38222 ft 429 kts 277°
2026-04-21 14:18 30.81777 -101.69247 38220 ft 429 kts 277°
2026-04-21 14:18 30.82531 -101.76139 38211 ft 429 kts 277°
2026-04-21 14:19 30.83282 -101.83029 38209 ft 428 kts 277°
2026-04-21 14:19 30.84027 -101.89903 38209 ft 428 kts 277°
2026-04-21 14:20 30.84764 -101.96734 38204 ft 428 kts 277°
2026-04-21 14:20 30.85502 -102.03613 38202 ft 428 kts 277°
2026-04-21 14:21 30.86237 -102.10497 38201 ft 428 kts 277°
2026-04-21 14:21 30.86968 -102.17379 38202 ft 428 kts 277°
2026-04-21 14:22 30.87695 -102.24259 38191 ft 428 kts 277°
2026-04-21 14:22 30.88419 -102.31144 38190 ft 429 kts 277°
2026-04-21 14:23 30.89141 -102.38047 38191 ft 429 kts 277°
2026-04-21 14:23 30.89855 -102.44905 38183 ft 429 kts 277°
2026-04-21 14:24 30.90568 -102.51800 38180 ft 429 kts 277°
2026-04-21 14:24 30.91279 -102.58706 38180 ft 429 kts 277°
2026-04-21 14:25 30.92011 -102.65609 38179 ft 429 kts 277°
2026-04-21 14:25 30.92717 -102.72512 38174 ft 429 kts 276°
2026-04-21 14:26 30.93404 -102.79379 38174 ft 429 kts 276°
2026-04-21 14:26 30.94092 -102.86299 38174 ft 430 kts 276°
2026-04-21 14:27 30.94780 -102.93228 38176 ft 430 kts 276°
2026-04-21 14:27 30.95785 -103.00090 38175 ft 431 kts 283°
2026-04-21 14:28 30.97518 -103.06793 38175 ft 432 kts 287°
2026-04-21 14:28 30.99452 -103.13416 38177 ft 431 kts 287°
2026-04-21 14:29 31.01320 -103.20013 38185 ft 431 kts 287°
2026-04-21 14:29 31.03156 -103.26666 38182 ft 431 kts 286°
2026-04-21 14:30 31.04980 -103.33352 38171 ft 434 kts 287°
2026-04-21 14:30 31.06835 -103.40065 38190 ft 433 kts 286°
2026-04-21 14:31 31.08680 -103.46744 38192 ft 431 kts 286°
2026-04-21 14:31 31.10501 -103.53409 38192 ft 431 kts 286°
2026-04-21 14:32 31.12301 -103.60034 38199 ft 431 kts 286°
2026-04-21 14:32 31.14108 -103.66709 38203 ft 431 kts 285°
2026-04-21 14:33 31.15913 -103.73395 38207 ft 431 kts 285°
2026-04-21 14:33 31.17711 -103.80073 38208 ft 431 kts 285°
2026-04-21 14:34 31.19508 -103.86764 38202 ft 432 kts 285°
2026-04-21 14:34 31.21296 -103.93436 38205 ft 432 kts 285°
2026-04-21 14:35 31.23086 -104.00131 38215 ft 431 kts 285°
2026-04-21 14:35 31.24873 -104.06831 38214 ft 432 kts 285°
2026-04-21 14:36 31.26663 -104.13555 38171 ft 434 kts 285°
2026-04-21 14:36 31.28459 -104.20321 38180 ft 436 kts 285°
2026-04-21 14:37 31.30243 -104.27056 38141 ft 436 kts 285°
2026-04-21 14:37 31.32039 -104.33854 38091 ft 440 kts 285°
2026-04-21 14:38 31.33850 -104.40725 38083 ft 443 kts 285°
2026-04-21 14:38 31.35662 -104.47614 38094 ft 442 kts 285°
2026-04-21 14:39 31.37465 -104.54487 38080 ft 442 kts 285°
2026-04-21 14:39 31.39270 -104.61386 38061 ft 443 kts 285°
2026-04-21 14:40 31.41061 -104.68246 38070 ft 443 kts 285°
2026-04-21 14:40 31.42856 -104.75138 38072 ft 442 kts 285°
2026-04-21 14:41 31.44652 -104.82049 38044 ft 444 kts 285°
2026-04-21 14:41 31.46454 -104.89002 38037 ft 447 kts 285°
2026-04-21 14:42 31.48245 -104.95932 38034 ft 447 kts 285°
2026-04-21 14:42 31.50041 -105.02895 38034 ft 445 kts 285°
2026-04-21 14:43 31.51825 -105.09831 38035 ft 445 kts 285°
2026-04-21 14:43 31.53611 -105.16793 38041 ft 444 kts 285°
2026-04-21 14:44 31.55388 -105.23732 38046 ft 444 kts 285°
2026-04-21 14:44 31.57160 -105.30672 38057 ft 444 kts 284°
2026-04-21 14:45 31.58916 -105.37575 38063 ft 445 kts 285°
2026-04-21 14:45 31.60697 -105.44579 38065 ft 449 kts 285°
2026-04-21 14:46 31.62464 -105.51551 38099 ft 443 kts 284°
2026-04-21 14:46 31.64210 -105.58459 38108 ft 441 kts 284°
2026-04-21 14:47 31.65948 -105.65350 38129 ft 440 kts 284°
2026-04-21 14:47 31.67673 -105.72209 38156 ft 439 kts 284°
2026-04-21 14:48 31.69392 -105.79062 38181 ft 437 kts 284°
2026-04-21 14:48 31.70828 -105.84801 38181 ft 437 kts 284°
2026-04-21 14:49 31.72531 -105.91617 38181 ft 437 kts 284°
2026-04-21 14:49 31.74265 -105.98464 38181 ft 437 kts 284°
2026-04-21 14:50 31.75969 -106.05331 38182 ft 437 kts 284°
2026-04-21 14:50 31.77665 -106.12214 38183 ft 439 kts 284°
2026-04-21 14:51 31.79367 -106.19137 38182 ft 441 kts 284°
2026-04-21 14:51 31.81066 -106.26053 38182 ft 439 kts 284°
2026-04-21 14:52 31.82193 -106.33093 38186 ft 438 kts 276°
2026-04-21 14:52 31.82695 -106.40234 38186 ft 438 kts 273°
2026-04-21 14:53 31.83087 -106.47336 38193 ft 438 kts 274°
2026-04-21 14:53 31.83558 -106.54473 38190 ft 438 kts 274°
2026-04-21 14:54 31.84059 -106.61618 38190 ft 438 kts 274°
2026-04-21 14:54 31.84567 -106.68762 38202 ft 438 kts 275°
2026-04-21 14:55 31.85118 -106.75894 38204 ft 438 kts 275°
2026-04-21 14:55 31.85648 -106.83019 38200 ft 438 kts 274°
2026-04-21 14:56 31.86162 -106.90116 38208 ft 437 kts 274°
2026-04-21 14:56 31.86670 -106.97247 38210 ft 438 kts 274°
2026-04-21 14:57 31.87176 -107.04399 38205 ft 438 kts 274°
2026-04-21 14:57 31.87675 -107.11536 38205 ft 438 kts 274°
2026-04-21 14:58 31.88171 -107.18672 38212 ft 438 kts 274°
2026-04-21 14:58 31.88663 -107.25821 38210 ft 438 kts 274°
2026-04-21 14:59 31.89148 -107.32915 38210 ft 438 kts 274°
2026-04-21 14:59 31.89633 -107.40065 38209 ft 438 kts 274°
2026-04-21 15:00 31.90141 -107.47206 38206 ft 438 kts 275°
2026-04-21 15:00 31.90619 -107.54401 38206 ft 442 kts 274°
2026-04-21 15:01 31.91083 -107.61596 38209 ft 438 kts 274°
2026-04-21 15:01 31.91541 -107.68736 38211 ft 437 kts 274°
2026-04-21 15:02 31.92002 -107.75833 38211 ft 437 kts 275°
2026-04-21 15:02 31.93093 -107.82890 38212 ft 439 kts 283°
2026-04-21 15:03 31.94787 -107.89809 38214 ft 439 kts 285°
2026-04-21 15:03 31.96556 -107.96689 38215 ft 439 kts 285°
2026-04-21 15:04 31.98245 -108.03606 38216 ft 439 kts 284°
2026-04-21 15:04 31.99898 -108.10532 38224 ft 439 kts 284°
2026-04-21 15:05 32.01535 -108.17433 38224 ft 439 kts 284°
2026-04-21 15:05 32.04044 -108.27818 38224 ft 439 kts 284°
2026-04-21 15:06 32.05690 -108.34748 38228 ft 439 kts 284°
2026-04-21 15:06 32.07327 -108.41679 38227 ft 439 kts 284°
2026-04-21 15:07 32.08958 -108.48617 38226 ft 439 kts 284°
2026-04-21 15:07 32.10574 -108.55507 38226 ft 439 kts 284°
2026-04-21 15:08 32.12197 -108.62446 38227 ft 439 kts 284°
2026-04-21 15:08 32.13818 -108.69399 38227 ft 439 kts 284°
2026-04-21 15:09 32.15432 -108.76341 38224 ft 439 kts 284°
2026-04-21 15:09 32.17047 -108.83299 38204 ft 442 kts 283°
2026-04-21 15:10 32.18679 -108.90343 38197 ft 447 kts 282°
2026-04-21 15:10 32.20347 -108.97457 38196 ft 457 kts 282°
2026-04-21 15:11 32.22014 -109.04730 38171 ft 459 kts 282°
2026-04-21 15:11 32.23683 -109.12055 38169 ft 458 kts 282°
2026-04-21 15:12 32.25324 -109.19269 38166 ft 457 kts 282°
2026-04-21 15:12 32.27013 -109.26560 38158 ft 465 kts 284°
2026-04-21 15:13 32.29283 -109.33763 38156 ft 469 kts 289°
2026-04-21 15:13 32.31870 -109.40843 38160 ft 468 kts 290°
2026-04-21 15:14 32.34421 -109.47944 38154 ft 468 kts 289°
2026-04-21 15:14 32.36898 -109.55013 38145 ft 468 kts 289°
2026-04-21 15:15 32.39367 -109.62129 38148 ft 468 kts 289°
2026-04-21 15:15 32.41865 -109.69249 38146 ft 468 kts 289°
2026-04-21 15:16 32.44359 -109.76373 38143 ft 468 kts 289°
2026-04-21 15:16 32.46839 -109.83520 38145 ft 468 kts 289°
2026-04-21 15:17 32.49302 -109.90652 38146 ft 468 kts 289°
2026-04-21 15:17 32.51748 -109.97759 38142 ft 468 kts 289°
2026-04-21 15:18 32.54205 -110.04914 38142 ft 468 kts 289°
2026-04-21 15:18 32.56659 -110.12077 38141 ft 468 kts 289°
2026-04-21 15:19 32.59104 -110.19232 38142 ft 468 kts 289°
2026-04-21 15:19 32.61530 -110.26347 38142 ft 468 kts 289°
2026-04-21 15:20 32.63970 -110.33517 38141 ft 468 kts 289°
2026-04-21 15:20 32.66403 -110.40684 38142 ft 468 kts 289°
2026-04-21 15:21 32.68832 -110.47855 38142 ft 468 kts 289°
2026-04-21 15:21 32.71257 -110.55029 38140 ft 468 kts 289°
2026-04-21 15:22 32.73682 -110.62219 38139 ft 468 kts 289°
2026-04-21 15:22 32.76101 -110.69408 38130 ft 469 kts 289°
2026-04-21 15:23 32.78527 -110.76633 38133 ft 473 kts 289°
2026-04-21 15:23 32.80950 -110.83867 38134 ft 474 kts 289°
2026-04-21 15:24 32.83380 -110.91136 38120 ft 472 kts 289°
2026-04-21 15:24 32.85799 -110.98390 38113 ft 472 kts 289°
2026-04-21 15:25 32.88218 -111.05661 38105 ft 472 kts 289°
2026-04-21 15:25 32.90630 -111.12927 38076 ft 472 kts 289°
2026-04-21 15:26 32.93033 -111.20185 38075 ft 471 kts 288°
2026-04-21 15:26 32.95436 -111.27456 38078 ft 472 kts 288°
2026-04-21 15:27 32.97835 -111.34732 38077 ft 472 kts 288°
2026-04-21 15:27 33.00234 -111.42027 38076 ft 473 kts 288°
2026-04-21 15:28 33.02618 -111.49293 38076 ft 473 kts 288°
2026-04-21 15:28 33.05007 -111.56588 38076 ft 473 kts 288°
2026-04-21 15:29 33.07392 -111.63890 38072 ft 472 kts 288°
2026-04-21 15:29 33.09773 -111.71199 38073 ft 473 kts 288°
2026-04-21 15:30 33.12139 -111.78476 38071 ft 469 kts 288°
2026-04-21 15:30 33.14488 -111.85718 38066 ft 472 kts 288°
2026-04-21 15:31 33.16859 -111.93044 38067 ft 473 kts 288°
2026-04-21 15:31 33.19225 -112.00372 38069 ft 472 kts 288°
2026-04-21 15:32 33.21588 -112.07709 38057 ft 472 kts 288°
2026-04-21 15:32 33.23944 -112.15041 38046 ft 472 kts 288°
2026-04-21 15:33 33.26293 -112.22371 38047 ft 473 kts 288°
2026-04-21 15:33 33.28644 -112.29721 38043 ft 474 kts 288°
2026-04-21 15:34 33.30600 -112.35850 38042 ft 473 kts 288°
2026-04-21 15:34 33.33318 -112.44389 38042 ft 472 kts 288°
2026-04-21 15:35 33.35296 -112.50538 38042 ft 473 kts 288°
2026-04-21 15:35 33.37619 -112.57849 38048 ft 472 kts 288°
2026-04-21 15:36 33.39936 -112.65214 38048 ft 472 kts 288°
2026-04-21 15:36 33.42247 -112.72580 38049 ft 472 kts 288°
2026-04-21 15:37 33.44558 -112.79943 38049 ft 472 kts 288°
2026-04-21 15:37 33.46966 -112.87266 38048 ft 473 kts 290°
2026-04-21 15:38 33.49605 -112.94496 38050 ft 473 kts 290°
2026-04-21 15:38 33.52223 -113.01753 38047 ft 473 kts 290°
2026-04-21 15:39 33.54795 -113.08970 38047 ft 473 kts 290°
2026-04-21 15:39 33.57376 -113.16246 38048 ft 473 kts 290°
2026-04-21 15:40 33.59965 -113.23505 38041 ft 473 kts 290°
2026-04-21 15:40 33.62571 -113.30774 38041 ft 473 kts 290°
2026-04-21 15:41 33.65141 -113.38024 38042 ft 471 kts 290°
2026-04-21 15:41 33.67699 -113.45261 38039 ft 470 kts 290°
2026-04-21 15:42 33.70254 -113.52435 38029 ft 470 kts 290°
2026-04-21 15:42 33.72792 -113.59680 38031 ft 470 kts 290°
2026-04-21 15:43 33.75319 -113.66925 38031 ft 470 kts 290°
2026-04-21 15:43 33.77846 -113.74179 38010 ft 470 kts 290°
2026-04-21 15:44 33.80389 -113.81452 38008 ft 472 kts 290°
2026-04-21 15:44 33.82887 -113.88739 38007 ft 471 kts 289°
2026-04-21 15:45 33.85343 -113.96023 37999 ft 463 kts 288°
2026-04-21 15:45 33.87737 -114.03122 37992 ft 461 kts 289°
2026-04-21 15:46 33.90155 -114.10353 37993 ft 469 kts 287°
2026-04-21 15:46 33.91904 -114.17909 37991 ft 468 kts 279°
2026-04-21 15:47 33.93075 -114.25600 37990 ft 466 kts 277°
2026-04-21 15:47 33.94242 -114.33275 37990 ft 466 kts 279°
2026-04-21 15:48 33.95494 -114.40911 37990 ft 463 kts 279°
2026-04-21 15:48 33.96757 -114.48524 37990 ft 463 kts 279°
2026-04-21 15:49 33.98047 -114.56134 37989 ft 464 kts 279°
2026-04-21 15:49 33.99339 -114.63747 37991 ft 463 kts 279°
2026-04-21 15:50 34.00638 -114.71359 37993 ft 463 kts 279°
2026-04-21 15:50 34.01885 -114.78931 37994 ft 463 kts 279°
2026-04-21 15:51 34.03127 -114.86548 37998 ft 462 kts 279°
2026-04-21 15:51 34.04361 -114.94136 38007 ft 461 kts 279°
2026-04-21 15:52 34.05595 -115.01716 38010 ft 461 kts 279°
2026-04-21 15:52 34.06828 -115.09312 38012 ft 461 kts 279°
2026-04-21 15:53 34.08050 -115.16894 38022 ft 461 kts 279°
2026-04-21 15:53 34.09262 -115.24446 38023 ft 461 kts 279°
2026-04-21 15:54 34.10484 -115.32028 38027 ft 460 kts 279°
2026-04-21 15:54 34.11748 -115.39589 38042 ft 459 kts 279°
2026-04-21 15:55 34.12953 -115.47151 38042 ft 459 kts 278°
2026-04-21 15:55 34.14146 -115.54717 38045 ft 459 kts 278°
2026-04-21 15:56 34.15326 -115.62222 37793 ft 446 kts 278°
2026-04-21 15:56 34.15890 -115.65886 37301 ft 442 kts 277°
2026-04-21 15:56 34.16184 -115.69594 36867 ft 446 kts 269°
2026-04-21 15:57 34.16089 -115.73362 36465 ft 451 kts 264°
2026-04-21 15:57 34.15752 -115.77106 36062 ft 457 kts 261°
2026-04-21 15:57 34.15296 -115.80977 35655 ft 461 kts 261°
2026-04-21 15:57 34.14875 -115.84775 35246 ft 462 kts 261°
2026-04-21 15:58 34.14489 -115.88627 34692 ft 462 kts 262°
2026-04-21 15:58 34.14113 -115.92485 34117 ft 462 kts 262°
2026-04-21 15:58 34.13735 -115.96343 33541 ft 463 kts 262°
2026-04-21 15:58 34.13357 -116.00212 32964 ft 464 kts 262°
2026-04-21 15:59 34.12995 -116.04079 32389 ft 464 kts 262°
2026-04-21 15:59 34.12619 -116.07938 31815 ft 460 kts 262°
2026-04-21 15:59 34.12240 -116.11754 31244 ft 456 kts 262°
2026-04-21 15:59 34.11863 -116.15533 30673 ft 451 kts 262°
2026-04-21 16:00 34.11488 -116.19271 30099 ft 446 kts 262°
2026-04-21 16:00 34.11120 -116.22933 29531 ft 443 kts 262°
2026-04-21 16:00 34.10751 -116.26608 28956 ft 439 kts 262°
2026-04-21 16:00 34.10386 -116.30250 28384 ft 435 kts 262°
2026-04-21 16:01 34.10017 -116.33868 27810 ft 432 kts 261°
2026-04-21 16:01 34.09637 -116.37452 27235 ft 430 kts 261°
2026-04-21 16:01 34.09253 -116.41017 26659 ft 427 kts 261°
2026-04-21 16:01 34.08868 -116.44565 26082 ft 424 kts 261°
2026-04-21 16:02 34.08486 -116.48075 25510 ft 422 kts 261°
2026-04-21 16:02 34.08104 -116.51584 24934 ft 419 kts 261°
2026-04-21 16:02 34.07727 -116.55050 24359 ft 416 kts 261°
2026-04-21 16:02 34.07353 -116.58496 23824 ft 413 kts 261°
2026-04-21 16:03 34.07013 -116.61916 23343 ft 408 kts 261°
2026-04-21 16:03 34.06717 -116.65312 22848 ft 404 kts 261°
2026-04-21 16:03 34.06423 -116.68619 22355 ft 401 kts 261°
2026-04-21 16:03 34.06111 -116.71986 21851 ft 397 kts 261°
2026-04-21 16:04 34.05800 -116.75286 21353 ft 395 kts 261°
2026-04-21 16:04 34.05489 -116.78568 20852 ft 392 kts 260°
2026-04-21 16:04 34.05183 -116.81792 20357 ft 390 kts 260°
2026-04-21 16:04 34.04876 -116.85027 19857 ft 387 kts 260°
2026-04-21 16:05 34.04572 -116.88232 19361 ft 384 kts 260°
2026-04-21 16:05 34.04234 -116.91411 18863 ft 380 kts 258°
2026-04-21 16:05 34.03819 -116.94537 18432 ft 375 kts 257°
2026-04-21 16:05 34.03389 -116.97611 18060 ft 369 kts 257°
2026-04-21 16:06 34.02987 -117.00640 17711 ft 363 kts 257°
2026-04-21 16:06 34.02600 -117.03627 17368 ft 357 kts 257°
2026-04-21 16:06 34.02255 -117.06538 17010 ft 341 kts 258°
2026-04-21 16:06 34.01933 -117.09335 16670 ft 335 kts 258°
2026-04-21 16:07 34.01607 -117.12103 16320 ft 332 kts 257°
2026-04-21 16:07 34.01279 -117.14851 15968 ft 329 kts 257°
2026-04-21 16:07 34.00953 -117.17572 15618 ft 327 kts 257°
2026-04-21 16:07 34.00629 -117.20280 15278 ft 326 kts 257°
2026-04-21 16:08 33.99989 -117.25634 14642 ft 324 kts 257°
2026-04-21 16:08 33.99667 -117.28315 14342 ft 322 kts 257°
2026-04-21 16:08 33.99343 -117.30966 14041 ft 319 kts 257°
2026-04-21 16:09 33.99022 -117.33602 13741 ft 316 kts 258°
2026-04-21 16:09 33.98729 -117.36222 13442 ft 315 kts 258°
2026-04-21 16:09 33.98429 -117.38825 13140 ft 311 kts 257°
2026-04-21 16:09 33.98126 -117.41398 12839 ft 308 kts 257°
2026-04-21 16:10 33.97824 -117.43938 12539 ft 304 kts 257°
2026-04-21 16:10 33.97530 -117.46444 12239 ft 300 kts 258°
2026-04-21 16:10 33.97413 -117.48953 11938 ft 300 kts 266°
2026-04-21 16:10 33.97622 -117.51462 11640 ft 301 kts 274°
2026-04-21 16:11 33.98032 -117.53894 11345 ft 300 kts 278°
2026-04-21 16:11 33.98525 -117.56325 11045 ft 297 kts 278°
2026-04-21 16:11 33.98998 -117.58741 10745 ft 294 kts 278°
2026-04-21 16:11 33.99434 -117.61143 10444 ft 292 kts 277°
2026-04-21 16:12 33.99710 -117.62725 10248 ft 290 kts 277°
2026-04-21 16:12 34.00257 -117.65890 9881 ft 286 kts 276°
2026-04-21 16:12 34.00544 -117.68242 9603 ft 281 kts 271°
2026-04-21 16:12 34.00563 -117.70572 9327 ft 276 kts 263°
2026-04-21 16:13 34.00352 -117.72847 9052 ft 272 kts 258°
2026-04-21 16:13 34.00068 -117.75095 8777 ft 270 kts 258°
2026-04-21 16:13 33.99816 -117.77343 8500 ft 270 kts 259°
2026-04-21 16:13 33.99589 -117.79581 8224 ft 270 kts 260°
2026-04-21 16:14 33.99368 -117.81822 7972 ft 268 kts 260°
2026-04-21 16:14 33.99159 -117.84041 7720 ft 265 kts 260°
2026-04-21 16:14 33.98949 -117.86241 7467 ft 263 kts 261°
2026-04-21 16:14 33.98741 -117.88390 7219 ft 260 kts 261°
2026-04-21 16:15 33.98547 -117.90546 6968 ft 258 kts 262°
2026-04-21 16:15 33.98369 -117.92697 6716 ft 256 kts 261°
2026-04-21 16:15 33.98180 -117.94782 6454 ft 245 kts 261°
2026-04-21 16:15 33.97989 -117.96774 6223 ft 232 kts 261°
2026-04-21 16:16 33.97803 -117.98657 5962 ft 221 kts 261°
2026-04-21 16:16 33.97622 -118.00469 5698 ft 215 kts 261°
2026-04-21 16:16 33.97443 -118.02238 5440 ft 211 kts 261°
2026-04-21 16:16 33.97266 -118.03990 5218 ft 209 kts 261°
2026-04-21 16:17 33.97088 -118.05732 5017 ft 210 kts 261°
2026-04-21 16:17 33.96910 -118.07479 4948 ft 210 kts 261°
2026-04-21 16:17 33.96735 -118.09196 4837 ft 203 kts 262°
2026-04-21 16:17 33.96565 -118.10853 4580 ft 194 kts 261°
2026-04-21 16:18 33.96405 -118.12422 4310 ft 188 kts 261°
2026-04-21 16:18 33.96250 -118.13943 4040 ft 178 kts 261°
2026-04-21 16:18 33.96103 -118.15378 3805 ft 168 kts 262°
2026-04-21 16:18 33.95963 -118.16741 3595 ft 160 kts 262°
2026-04-21 16:19 33.95830 -118.18043 3401 ft 154 kts 262°
2026-04-21 16:19 33.95700 -118.19313 3235 ft 151 kts 262°
2026-04-21 16:19 33.95571 -118.20575 2994 ft 153 kts 262°
2026-04-21 16:19 33.95442 -118.21835 2787 ft 151 kts 262°
2026-04-21 16:20 33.95357 -118.22667 2652 ft 151 kts 262°
2026-04-21 16:20 33.95187 -118.24335 2384 ft 151 kts 262°
2026-04-21 16:20 33.95100 -118.25180 2248 ft 151 kts 262°
2026-04-21 16:20 33.94973 -118.26426 2050 ft 150 kts 262°
2026-04-21 16:21 33.94845 -118.27671 1852 ft 149 kts 262°
2026-04-21 16:21 33.94678 -118.29308 1589 ft 148 kts 262°
2026-04-21 16:21 33.94593 -118.30138 1455 ft 147 kts 262°
2026-04-21 16:21 33.94470 -118.31343 1263 ft 147 kts 262°
2026-04-21 16:22 33.94345 -118.32562 1068 ft 146 kts 262°
2026-04-21 16:22 33.94221 -118.33769 876 ft 145 kts 262°
2026-04-21 16:22 33.94098 -118.34977 682 ft 145 kts 263°
2026-04-21 16:22 33.93975 -118.36182 492 ft 145 kts 263°
2026-04-21 16:23 33.93851 -118.37386 302 ft 144 kts 263°
2026-04-21 16:23 33.93731 -118.38564 142 ft 141 kts 263°
2026-04-21 16:23 33.93632 -118.39535 140 ft 82 kts 263°
2026-04-21 16:23 33.93588 -118.39959 140 ft 20 kts 263°
2026-04-21 16:24 33.93575 -118.40110 140 ft 22 kts 273°
2026-04-21 16:24 33.93606 -118.40236 140 ft 10 kts 291°
2026-04-21 16:24 33.93625 -118.40298 140 ft 6 kts 291°
2026-04-21 16:24 33.93654 -118.40362 140 ft 14 kts 305°
2026-04-21 16:25 33.93666 -118.40399 140 ft 8 kts 256°
2026-04-21 16:25 33.93641 -118.40542 140 ft 22 kts 261°
2026-04-21 16:25 33.93626 -118.40680 140 ft 15 kts 263°
2026-04-21 16:25 33.93617 -118.40795 140 ft 12 kts 275°
2026-04-21 16:26 33.93695 -118.40856 140 ft 20 kts 353°
2026-04-21 16:26 33.93824 -118.40876 140 ft 15 kts 353°
2026-04-21 16:26 33.93904 -118.40840 140 ft 15 kts 38°
2026-04-21 16:26 33.93998 -118.40802 140 ft 8 kts 352°
2026-04-21 16:27 33.94038 -118.40810 140 ft 5 kts 343°
2026-04-21 16:27 33.94060 -118.40840 140 ft 8 kts 285°
2026-04-21 16:27 33.94058 -118.40892 140 ft 4 kts 264°
2026-04-21 16:27 33.94058 -118.40896 140 ft 0 kts 264°